TimeCST,TemperatureF,Dew PointF,Humidity,Sea Level PressureIn,VisibilityMPH,Wind Direction,Wind SpeedMPH,Gust SpeedMPH,PrecipitationIn,Events,Conditions,WindDirDegrees,DateUTC
12:15 AM,49.6,11.8,22,30.28,7.0,NNW,11.5,-,N/A,,Overcast,330,2014-01-17 06:15:00
12:35 AM,50.0,10.4,20,30.28,7.0,NNW,10.4,-,N/A,,Overcast,340,2014-01-17 06:35:00
12:55 AM,48.4,11.8,23,30.28,7.0,NNW,12.7,16.1,N/A,,Overcast,330,2014-01-17 06:55:00
1:15 AM,49.3,9.9,20,30.28,10.0,NNW,13.8,-,N/A,,Overcast,340,2014-01-17 07:15:00
1:40 AM,48.6,7.9,19,30.28,10.0,NNW,13.8,-,N/A,,Overcast,340,2014-01-17 07:40:00
1:55 AM,48.2,7.0,19,30.28,10.0,NNW,11.5,-,N/A,,Overcast,340,2014-01-17 07:55:00
2:15 AM,47.3,7.5,20,30.30,10.0,North,10.4,-,N/A,,Overcast,360,2014-01-17 08:15:00
2:35 AM,46.8,8.2,21,30.31,7.0,NNE,11.5,-,N/A,,Overcast,20,2014-01-17 08:35:00
2:55 AM,46.6,7.7,21,30.31,7.0,North,15.0,19.6,N/A,,Overcast,10,2014-01-17 08:55:00
3:15 AM,45.5,8.4,22,30.31,10.0,North,16.1,-,N/A,,Overcast,10,2014-01-17 09:15:00
3:35 AM,45.0,9.3,23,30.31,10.0,North,13.8,-,N/A,,Mostly Cloudy,10,2014-01-17 09:35:00
3:38 AM,44.6,8.6,23,30.32,10.0,North,13.8,-,N/A,,Mostly Cloudy,10,2014-01-17 09:38:00
3:55 AM,43.3,9.9,26,30.32,10.0,NNE,11.5,-,N/A,,Scattered Clouds,30,2014-01-17 09:55:00
4:15 AM,41.5,10.4,28,30.33,10.0,NE,10.4,-,N/A,,Scattered Clouds,50,2014-01-17 10:15:00
4:35 AM,39.0,11.3,32,30.33,10.0,NE,6.9,-,N/A,,Scattered Clouds,40,2014-01-17 10:35:00
4:55 AM,37.8,12.0,35,30.33,10.0,NE,6.9,-,N/A,,Clear,40,2014-01-17 10:55:00
5:15 AM,39.2,12.2,33,30.34,10.0,NNE,8.1,-,N/A,,Scattered Clouds,30,2014-01-17 11:15:00
5:35 AM,37.9,12.0,35,30.34,10.0,NNE,8.1,-,N/A,,Scattered Clouds,30,2014-01-17 11:35:00
5:55 AM,34.3,12.6,41,30.34,10.0,NNE,8.1,-,N/A,,Clear,20,2014-01-17 11:55:00
6:15 AM,33.6,12.7,42,30.35,10.0,NNE,6.9,-,N/A,,Clear,20,2014-01-17 12:15:00
6:35 AM,33.1,12.6,43,30.35,10.0,NNE,5.8,-,N/A,,Clear,20,2014-01-17 12:35:00
6:55 AM,31.6,13.1,46,30.35,10.0,NNE,9.2,-,N/A,,Clear,30,2014-01-17 12:55:00
7:15 AM,31.3,12.2,45,30.36,10.0,NNE,8.1,-,N/A,,Clear,20,2014-01-17 13:15:00
7:35 AM,31.8,11.5,43,30.36,10.0,NNE,5.8,-,N/A,,Clear,30,2014-01-17 13:35:00
7:55 AM,30.9,11.1,44,30.37,10.0,North,3.5,-,N/A,,Clear,360,2014-01-17 13:55:00
8:15 AM,27.7,12.2,52,30.36,10.0,Calm,Calm,-,N/A,,Clear,0,2014-01-17 14:15:00
8:35 AM,29.3,14.7,55,30.37,10.0,Calm,Calm,-,N/A,,Clear,0,2014-01-17 14:35:00
8:55 AM,33.3,15.1,47,30.38,10.0,Calm,Calm,-,N/A,,Clear,0,2014-01-17 14:55:00
9:15 AM,36.5,13.3,39,30.39,10.0,Calm,Calm,-,N/A,,Clear,0,2014-01-17 15:15:00
9:35 AM,38.7,12.9,35,30.39,10.0,Calm,Calm,-,N/A,,Clear,0,2014-01-17 15:35:00
9:55 AM,40.6,11.1,30,30.39,10.0,North,5.8,-,N/A,,Clear,350,2014-01-17 15:55:00
10:15 AM,41.5,10.2,28,30.39,10.0,North,5.8,-,N/A,,Clear,10,2014-01-17 16:15:00
10:35 AM,42.8,11.5,28,30.39,10.0,NW,3.5,-,N/A,,Clear,320,2014-01-17 16:35:00
10:55 AM,43.3,11.8,28,30.39,10.0,WNW,3.5,-,N/A,,Clear,290,2014-01-17 16:55:00
11:20 AM,44.6,11.7,26,30.39,10.0,WNW,5.8,-,N/A,,Clear,290,2014-01-17 17:20:00
11:35 AM,44.6,11.5,26,30.38,10.0,WNW,6.9,-,N/A,,Clear,300,2014-01-17 17:35:00
11:55 AM,46.4,12.9,26,30.36,10.0,West,8.1,-,N/A,,Clear,270,2014-01-17 17:55:00
12:15 PM,47.3,12.9,25,30.34,10.0,West,8.1,16.1,N/A,,Clear,270,2014-01-17 18:15:00
12:35 PM,48.9,14.0,25,30.32,10.0,WNW,11.5,-,N/A,,Clear,290,2014-01-17 18:35:00
1:00 PM,49.1,13.1,24,30.30,10.0,West,9.2,17.3,N/A,,Clear,280,2014-01-17 19:00:00
1:15 PM,50.0,13.6,23,30.28,10.0,West,12.7,-,N/A,,Clear,270,2014-01-17 19:15:00
1:35 PM,50.7,14.4,24,30.28,10.0,West,10.4,-,N/A,,Clear,270,2014-01-17 19:35:00
1:55 PM,51.1,14.4,23,30.27,10.0,West,12.7,16.1,N/A,,Clear,270,2014-01-17 19:55:00
2:15 PM,52.0,14.4,22,30.25,10.0,West,10.4,16.1,N/A,,Clear,270,2014-01-17 20:15:00
2:35 PM,52.7,14.7,22,30.24,10.0,West,10.4,-,N/A,,Clear,270,2014-01-17 20:35:00
2:55 PM,52.7,14.0,22,30.24,10.0,West,8.1,-,N/A,,Clear,260,2014-01-17 20:55:00
3:15 PM,54.0,14.9,21,30.22,10.0,West,9.2,-,N/A,,Clear,260,2014-01-17 21:15:00
3:35 PM,54.1,14.2,21,30.22,10.0,WSW,9.2,16.1,N/A,,Clear,250,2014-01-17 21:35:00
3:55 PM,54.3,14.2,20,30.22,10.0,WSW,12.7,-,N/A,,Clear,250,2014-01-17 21:55:00
4:15 PM,54.5,14.0,20,30.22,10.0,WSW,12.7,-,N/A,,Clear,250,2014-01-17 22:15:00
4:40 PM,54.5,14.4,20,30.22,10.0,WSW,9.2,-,N/A,,Clear,250,2014-01-17 22:40:00
4:55 PM,54.3,14.4,21,30.21,10.0,WSW,11.5,-,N/A,,Clear,240,2014-01-17 22:55:00
5:15 PM,53.6,14.2,21,30.21,10.0,SW,8.1,-,N/A,,Clear,230,2014-01-17 23:15:00
5:35 PM,52.0,14.4,22,30.21,10.0,SSW,6.9,-,N/A,,Clear,210,2014-01-17 23:35:00
5:55 PM,47.8,15.1,27,30.20,10.0,South,9.2,-,N/A,,Clear,190,2014-01-17 23:55:00
6:15 PM,46.2,14.2,28,30.19,10.0,South,8.1,-,N/A,,Clear,180,2014-01-18 00:15:00
6:20 PM,46.4,14.0,27,30.19,10.0,South,8.1,-,N/A,,Clear,180,2014-01-18 00:20:00
6:35 PM,44.4,14.9,30,30.19,10.0,South,8.1,-,N/A,,Clear,170,2014-01-18 00:35:00
6:55 PM,43.3,15.4,32,30.18,10.0,South,8.1,-,N/A,,Clear,170,2014-01-18 00:55:00
7:15 PM,43.7,15.8,33,30.18,10.0,South,10.4,-,N/A,,Clear,170,2014-01-18 01:15:00
7:35 PM,46.4,15.6,29,30.17,10.0,South,11.5,-,N/A,,Clear,170,2014-01-18 01:35:00
7:55 PM,46.4,15.6,29,30.16,10.0,South,11.5,-,N/A,,Clear,180,2014-01-18 01:55:00
8:15 PM,45.3,15.8,31,30.16,10.0,South,10.4,-,N/A,,Clear,170,2014-01-18 02:15:00
8:35 PM,45.0,15.8,31,30.16,10.0,South,9.2,-,N/A,,Clear,170,2014-01-18 02:35:00
8:55 PM,43.9,15.8,32,30.16,10.0,South,9.2,-,N/A,,Clear,170,2014-01-18 02:55:00
9:15 PM,43.3,15.8,33,30.16,10.0,South,9.2,-,N/A,,Clear,180,2014-01-18 03:15:00
9:35 PM,42.6,15.8,34,30.15,10.0,South,10.4,-,N/A,,Clear,190,2014-01-18 03:35:00
9:55 PM,40.3,16.3,38,30.14,10.0,South,9.2,-,N/A,,Clear,190,2014-01-18 03:55:00
10:15 PM,39.2,16.7,40,30.14,10.0,South,9.2,-,N/A,,Clear,190,2014-01-18 04:15:00
10:35 PM,39.2,17.4,41,30.12,10.0,SSW,8.1,-,N/A,,Clear,200,2014-01-18 04:35:00
10:55 PM,38.3,17.4,43,30.12,10.0,SSW,6.9,-,N/A,,Clear,210,2014-01-18 04:55:00
11:15 PM,38.3,17.2,43,30.12,10.0,SW,4.6,-,N/A,,Clear,220,2014-01-18 05:15:00
11:35 PM,37.6,17.2,44,30.12,10.0,Calm,Calm,-,N/A,,Clear,0,2014-01-18 05:35:00
11:55 PM,37.9,17.1,43,30.12,10.0,Calm,Calm,-,N/A,,Clear,0,2014-01-18 05:55:00